When you browse on this site, cookies collect data to enhance your experience and personalize the content and advertising you see.
Visit our Privacy Policy to learn more. By continuing to use the site, you agree to this use of cookies and data.
  • In Austria
  • List of Countries
  • For 7 days
  • Water Temperature
  • Weather Map
  • News
  • Weather Widgets
  • user-avatar
    Login

    Hourly Weather Sesquile

    Today, 22 September, Sunday

    Time Temperature Precipitation Wind Pressure Humidity
    00:00 +9°C° 0 mm 0 mps 556 mmHg 92%
    01:00 +9°C° 0 mm 0 mps 556 mmHg 92%
    02:00 +9°C° 0 mm 0 mps 556 mmHg 92%
    03:00 +9°C° 0 mm 0 mps 555 mmHg 92%
    04:00 +9°C° 0 mm 0 mps 555 mmHg 92%
    05:00 +10°C° 0 mm 0 mps 556 mmHg 90%
    06:00 +10°C° 0 mm 0 mps 557 mmHg 88%
    07:00 +11°C° 0 mm 0 mps 558 mmHg 87%
    08:00 +14°C° 0 mm 1 mps 559 mmHg 80%
    09:00 +16°C° 0 mm 1 mps 560 mmHg 73%
    10:00 +17°C° 0 mm 2 mps 561 mmHg 66%
    11:00 +18°C° 0.5 mm 2 mps 560 mmHg 67%
    12:00 +18°C° 0.5 mm 2 mps 560 mmHg 68%
    13:00 +18°C° 0.5 mm 3 mps 559 mmHg 69%
    14:00 +18°C° 0.6 mm 3 mps 559 mmHg 69%
    15:00 +18°C° 0.6 mm 2 mps 558 mmHg 69%
    16:00 +18°C° 0.6 mm 2 mps 557 mmHg 70%
    17:00 +16°C° 0.3 mm 2 mps 557 mmHg 78%
    18:00 +14°C° 0.3 mm 1 mps 556 mmHg 86%
    19:00 +12°C° 0.3 mm 1 mps 556 mmHg 94%
    20:00 +11°C° 0 mm 1 mps 556 mmHg 95%
    21:00 +10°C° 0 mm 0 mps 556 mmHg 96%
    22:00 +10°C° 0 mm 0 mps 556 mmHg 96%
    23:00 +10°C° 0 mm 0 mps 556 mmHg 96%

    Tomorrow, 23 September, Monday

    Time Temperature Precipitation Wind Pressure Humidity
    00:00 +9°C° 0 mm 0 mps 556 mmHg 95%
    01:00 +10°C° 0 mm 1 mps 556 mmHg 95%
    02:00 +10°C° 0 mm 1 mps 556 mmHg 94%
    03:00 +9°C° 0 mm 0 mps 556 mmHg 93%
    04:00 +9°C° 0 mm 0 mps 556 mmHg 93%
    05:00 +10°C° 0.1 mm 1 mps 556 mmHg 91%
    06:00 +11°C° 0.1 mm 1 mps 557 mmHg 89%
    07:00 +12°C° 0.1 mm 1 mps 558 mmHg 86%
    08:00 +14°C° 0 mm 1 mps 559 mmHg 78%
    09:00 +16°C° 0 mm 1 mps 560 mmHg 69%
    10:00 +20°C° 0 mm 1 mps 561 mmHg 60%
    11:00 +20°C° 0.4 mm 1 mps 561 mmHg 62%
    12:00 +19°C° 0.4 mm 2 mps 560 mmHg 64%
    13:00 +19°C° 0.4 mm 2 mps 559 mmHg 67%
    14:00 +18°C° 0.8 mm 2 mps 559 mmHg 73%
    15:00 +17°C° 0.8 mm 2 mps 558 mmHg 79%
    16:00 +16°C° 0.8 mm 1 mps 557 mmHg 85%
    17:00 +15°C° 0.7 mm 1 mps 557 mmHg 89%
    18:00 +14°C° 0.7 mm 1 mps 556 mmHg 92%
    19:00 +11°C° 0.7 mm 0 mps 556 mmHg 96%
    20:00 +11°C° 0.3 mm 0 mps 556 mmHg 96%
    21:00 +11°C° 0.3 mm 0 mps 556 mmHg 96%
    22:00 +11°C° 0.3 mm 0 mps 557 mmHg 96%
    23:00 +10°C° 0.3 mm 0 mps 556 mmHg 95%

    Day after tomorrow, 24 September, Tuesday

    Time Temperature Precipitation Wind Pressure Humidity
    00:00 +10°C° 0.3 mm 0 mps 556 mmHg 95%
    01:00 +9°C° 0.3 mm 0 mps 556 mmHg 94%
    02:00 +9°C° 0 mm 0 mps 556 mmHg 94%
    03:00 +9°C° 0 mm 0 mps 555 mmHg 93%
    04:00 +8°C° 0 mm 0 mps 555 mmHg 93%
    05:00 +9°C° 0 mm 0 mps 556 mmHg 91%
    06:00 +10°C° 0 mm 0 mps 557 mmHg 89%
    07:00 +11°C° 0 mm 0 mps 558 mmHg 87%
    08:00 +14°C° 0 mm 1 mps 559 mmHg 77%
    09:00 +18°C° 0 mm 1 mps 560 mmHg 67%
    10:00 +20°C° 0 mm 1 mps 562 mmHg 57%
    11:00 +19°C° 0.3 mm 2 mps 561 mmHg 60%
    12:00 +19°C° 0.3 mm 2 mps 560 mmHg 63%
    13:00 +19°C° 0.3 mm 2 mps 559 mmHg 65%
    14:00 +18°C° 1 mm 2 mps 558 mmHg 74%
    15:00 +16°C° 1 mm 1 mps 557 mmHg 82%
    16:00 +15°C° 1 mm 1 mps 556 mmHg 91%
    17:00 +14°C° 1.1 mm 1 mps 556 mmHg 93%
    18:00 +14°C° 1.1 mm 1 mps 556 mmHg 95%
    19:00 +13°C° 1.1 mm 1 mps 556 mmHg 97%
    20:00 +13°C° 0.6 mm 1 mps 557 mmHg 97%
    21:00 +12°C° 0.6 mm 1 mps 557 mmHg 96%
    22:00 +11°C° 0.6 mm 0 mps 558 mmHg 96%
    23:00 +11°C° 0 mm 0 mps 557 mmHg 96%

    25 September, Wednesday

    Time Temperature Precipitation Wind Pressure Humidity
    00:00 +11°C° 0 mm 0 mps 557 mmHg 96%
    01:00 +10°C° 0 mm 0 mps 556 mmHg 96%
    02:00 +10°C° 0 mm 0 mps 556 mmHg 96%
    03:00 +10°C° 0 mm 0 mps 556 mmHg 96%
    04:00 +10°C° 0 mm 0 mps 556 mmHg 95%
    05:00 +10°C° 0 mm 0 mps 557 mmHg 94%
    06:00 +11°C° 0 mm 0 mps 557 mmHg 93%
    07:00 +11°C° 0 mm 0 mps 558 mmHg 91%
    08:00 +14°C° 0.2 mm 1 mps 559 mmHg 87%
    09:00 +15°C° 0.2 mm 1 mps 560 mmHg 82%
    10:00 +16°C° 0.2 mm 2 mps 560 mmHg 78%
    11:00 +17°C° 0.7 mm 2 mps 560 mmHg 77%
    12:00 +17°C° 0.7 mm 2 mps 559 mmHg 75%
    13:00 +17°C° 0.7 mm 2 mps 559 mmHg 74%
    14:00 +17°C° 0.9 mm 2 mps 558 mmHg 77%
    15:00 +16°C° 0.9 mm 2 mps 558 mmHg 80%
    16:00 +16°C° 0.9 mm 2 mps 557 mmHg 83%
    17:00 +15°C° 0.4 mm 1 mps 557 mmHg 87%
    18:00 +13°C° 0.4 mm 1 mps 556 mmHg 92%
    19:00 +12°C° 0.4 mm 1 mps 556 mmHg 96%
    20:00 +12°C° 0 mm 1 mps 556 mmHg 96%
    21:00 +11°C° 0 mm 1 mps 557 mmHg 96%
    22:00 +11°C° 0 mm 1 mps 557 mmHg 96%
    23:00 +11°C° 0 mm 1 mps 557 mmHg 96%

    26 September, Thursday

    Time Temperature Precipitation Wind Pressure Humidity
    00:00 +10°C° 0 mm 0 mps 556 mmHg 96%
    01:00 +9°C° 0 mm 0 mps 556 mmHg 96%
    02:00 +10°C° 0 mm 1 mps 556 mmHg 95%
    03:00 +10°C° 0 mm 1 mps 555 mmHg 95%
    04:00 +10°C° 0 mm 1 mps 555 mmHg 94%
    05:00 +11°C° 0 mm 1 mps 556 mmHg 92%
    06:00 +11°C° 0 mm 0 mps 557 mmHg 89%
    07:00 +11°C° 0 mm 0 mps 558 mmHg 87%
    08:00 +14°C° 0 mm 1 mps 559 mmHg 75%
    09:00 +16°C° 0 mm 2 mps 560 mmHg 63%
    10:00 +19°C° 0 mm 3 mps 561 mmHg 50%
    11:00 +19°C° 0 mm 3 mps 561 mmHg 49%
    12:00 +20°C° 0 mm 4 mps 560 mmHg 47%
    13:00 +20°C° 0 mm 4 mps 560 mmHg 45%
    14:00 +19°C° 0.1 mm 4 mps 559 mmHg 49%
    15:00 +19°C° 0.1 mm 3 mps 558 mmHg 53%
    16:00 +18°C° 0.1 mm 3 mps 558 mmHg 57%
    17:00 +15°C° 0 mm 2 mps 557 mmHg 68%
    18:00 +13°C° 0 mm 1 mps 556 mmHg 79%
    19:00 +11°C° 0 mm 1 mps 555 mmHg 90%
    20:00 +11°C° 0 mm 1 mps 555 mmHg 90%
    21:00 +10°C° 0 mm 1 mps 556 mmHg 91%
    22:00 +9°C° 0 mm 0 mps 556 mmHg 91%
    23:00 +10°C° 0 mm 1 mps 556 mmHg 89%

    27 September, Friday

    Time Temperature Precipitation Wind Pressure Humidity
    00:00 +10°C° 0 mm 1 mps 555 mmHg 87%
    01:00 +10°C° 0 mm 1 mps 555 mmHg 85%
    02:00 +10°C° 0 mm 1 mps 555 mmHg 84%
    03:00 +9°C° 0 mm 1 mps 555 mmHg 82%
    04:00 +9°C° 0 mm 1 mps 555 mmHg 81%
    05:00 +10°C° 0 mm 1 mps 556 mmHg 78%
    06:00 +11°C° 0 mm 1 mps 557 mmHg 75%
    07:00 +12°C° 0 mm 1 mps 558 mmHg 73%
    08:00 +14°C° 0 mm 1 mps 559 mmHg 66%
    09:00 +16°C° 0 mm 2 mps 560 mmHg 60%
    10:00 +18°C° 0 mm 2 mps 561 mmHg 54%
    11:00 +19°C° 0.1 mm 3 mps 561 mmHg 54%
    12:00 +20°C° 0.1 mm 3 mps 560 mmHg 54%
    13:00 +20°C° 0.1 mm 3 mps 560 mmHg 54%
    14:00 +19°C° 0.4 mm 3 mps 559 mmHg 59%
    15:00 +18°C° 0.4 mm 3 mps 558 mmHg 65%
    16:00 +18°C° 0.4 mm 3 mps 558 mmHg 70%
    17:00 +16°C° 0.3 mm 2 mps 557 mmHg 78%
    18:00 +14°C° 0.3 mm 1 mps 557 mmHg 87%
    19:00 +13°C° 0.3 mm 1 mps 556 mmHg 95%
    20:00 +12°C° 0 mm 1 mps 556 mmHg 95%
    21:00 +12°C° 0 mm 1 mps 556 mmHg 95%
    22:00 +11°C° 0 mm 1 mps 556 mmHg 95%
    23:00 +11°C° 0 mm 1 mps 556 mmHg 94%
    Show more